Regional Weather Roundup
Issued by NWS Cleveland, OH

Home | Current Version | Previous Version | Text Only | Print | Product List | Glossary Off
Versions: 1 2 3 4 5 6 7 8 9 10 11 12 13 14 15 16 17 18 19 20 21 22 23 24 25 26 27 28 29 30 31 32 33 34 35 36 37 38 39 40 41 42 43 44 45 46 47 48 49 50

000
ASUS41 KCLE 041010
RWRCLE
OHIO REGIONAL WEATHER ROUNDUP
NATIONAL WEATHER SERVICE CLEVELAND, OH
600 AM EDT WED MAY 04 2016

NOTE: "FAIR" INDICATES FEW OR NO CLOUDS BELOW 12,000 FEET WITH NO
SIGNIFICANT WEATHER AND/OR OBSTRUCTIONS TO VISIBILITY.

OHZ001>008-015>018-024>027-034-035-043-044-041100-
   NORTHWEST OHIO

CITY           SKY/WX    TMP DP  RH WIND       PRES   REMARKS
DEFIANCE       CLOUDY    51  43  74 S8        29.64F
FINDLAY        CLOUDY    50  42  74 S10       29.66F
TOLEDO EXPRESS CLOUDY    49  45  86 S6        29.64F
TOLEDO EXEC    CLOUDY    51  44  77 S8        29.66F
LIMA           CLOUDY    50  45  83 S10       29.67F
$$

OHZ009>014-019>023-028>033-038-089-041100-
   NORTHEAST OHIO

CITY           SKY/WX    TMP DP  RH WIND       PRES   REMARKS
CLE-HOPKINS    PTCLDY    44  39  82 S7        29.72S
CLE-LAKEFRONT  CLEAR     47  38  71 S10       29.69F
CUY CO. ARPT   NOT AVBL
LORAIN-ELYRIA  CLEAR     44  39  82 CALM      29.70S
ASHTABULA      CLOUDY    40  39  97 SE5       29.72F
AKRON-CANTON   PTCLDY    44  39  82 CALM      29.71F
WOOSTER        CLEAR     40  39  97 CALM      29.71F FOG
MANSFIELD      CLEAR     42  41  96 S6        29.70F
YOUNGSTOWN     MOCLDY    36  35  96 E6        29.71F
$$

OHZ042-051>053-060>062-070>072-077>081-041100-
  SOUTHWEST OHIO

CITY           SKY/WX    TMP DP  RH WIND       PRES   REMARKS
CINC-COVINGTON CLOUDY    48  46  93 SW5       29.74F
CINC-LUNKEN    CLOUDY    49  48  97 CALM      29.75F
HAMILTON       MOCLDY    46  45  96 CALM      29.74F
DAYTON         CLOUDY    48  45  89 SW9       29.71F
WRIGHT-PAT AFB PTCLDY    45  45 100 CALM      29.71F
DAYTON GENERAL MOCLDY    45  43  93 S5        29.72F FOG
WILMINGTON     PTCLDY    45  45 100 S5        29.73F
$$

OHZ036-037-039>041-045>050-054>059-063>069-073>076-082>088-041100-
  CENTRAL AND SOUTHEAST OHIO

CITY           SKY/WX    TMP DP  RH WIND       PRES   REMARKS
COLUMBUS       CLEAR     45  44  97 S3        29.72F FOG
OSU AIRPORT    CLEAR     46  44  93 S6        29.72S
BOLTON FIELD   CLEAR     43  43 100 SW6       29.73S
RICKENBACK AFB CLEAR     45  44  96 SW5       29.73S FOG
NEWARK         FOG       44  41  89 CALM      29.72S VSB 1/4
MARION         PTCLDY    43  41  93 S6        29.70F FOG
LANCASTER      CLEAR     47  45  93 SW5       29.73F
ZANESVILLE     CLOUDY    51  47  86 CALM      29.73F
NEW PHILLY     CLOUDY    48  46  93 CALM      29.73F
$$




USA.gov is the U.S. government's official web portal to all federal, state and local government web resources and services.